Theta_e
306 306 303 304 303 302 303 306 307 303 302 303 303 304 307 308 308 316 318 312 313 315 323 333 329 331 346 353 354 354 358 362 356 355 354 350 355 355 354 356 355 353 352 345 342
308 304 303 303 305 304 304 304 305 306 302 303 305 305 306 309 314 317 316 314 313 318 318 319 330 326 333 352 353 357 358 360 350 349 352 349 350 350 358 358 357 355 350 344 343
302 301 301 301 302 302 302 302 304 304 302 306 307 310 310 311 320 321 322 320 314 316 318 319 320 326 330 342 349 351 354 354 348 348 348 348 347 349 355 361 357 356 352 347 346
301 301 300 301 301 301 301 302 303 302 304 309 313 313 313 316 325 322 320 319 318 317 322 320 319 327 329 339 345 349 347 347 348 346 345 345 349 350 350 359 354 352 350 349 351
301 301 301 301 301 301 301 302 303 304 305 314 319 316 315 318 319 322 322 321 320 319 322 318 320 327 330 338 345 346 345 347 346 346 343 347 348 350 356 357 353 351 351 351 351
302 301 301 301 301 301 302 305 306 307 307 316 321 318 316 320 321 324 327 320 322 324 320 319 322 325 331 337 343 343 343 345 346 348 348 349 347 347 357 355 354 352 352 351 350
302 301 301 301 301 301 305 308 309 309 310 313 322 318 318 315 321 325 325 325 323 322 318 319 322 323 329 333 335 340 341 341 348 349 350 349 351 354 352 355 356 354 353 351 350
301 301 301 301 301 304 308 309 310 312 311 317 320 320 321 317 321 323 323 327 322 320 319 319 320 322 322 330 335 337 339 342 340 347 349 351 356 351 351 354 355 355 354 353 350
302 302 302 302 301 303 308 310 311 312 312 318 320 321 322 323 322 323 325 323 326 325 321 321 320 321 322 328 332 334 341 341 341 342 344 350 355 350 348 352 353 353 354 352 352
302 302 302 302 301 304 307 310 311 321 322 321 322 323 323 322 326 326 325 325 321 323 324 322 321 323 323 327 332 335 340 339 340 341 343 344 353 350 350 350 354 354 351 350 352
302 302 302 302 302 307 308 310 308 313 310 308 310 319 312 320 319 327 326 325 320 324 326 326 327 327 326 327 330 335 339 339 338 339 341 343 351 351 351 347 350 354 349 350 348
302 302 302 302 302 308 311 309 308 308 307 309 310 311 312 313 315 320 326 326 320 325 329 331 332 330 329 329 330 334 336 338 338 337 338 342 349 352 351 351 351 354 350 347 348
302 302 303 303 304 310 310 308 308 308 307 309 309 310 311 311 313 316 320 325 321 322 332 332 333 332 330 329 331 332 334 335 337 335 333 337 350 349 346 349 347 350 346 345 348
302 303 303 304 308 307 312 310 308 308 308 312 314 314 315 312 313 316 319 323 325 321 326 334 332 333 333 331 330 333 333 335 337 336 334 336 343 352 349 352 349 348 347 348 347
304 305 305 305 308 310 311 310 308 309 312 315 314 316 313 312 313 315 318 321 324 323 323 328 335 334 333 333 331 333 331 333 335 336 334 335 340 347 353 354 351 349 347 345 347
304 305 306 307 308 310 309 308 308 309 313 311 312 312 311 312 316 319 318 320 322 324 325 326 331 333 333 333 333 332 331 329 331 334 335 333 337 340 351 354 352 345 345 346 348
302 305 307 307 309 309 309 308 309 310 311 311 310 310 309 311 314 315 317 319 325 323 327 329 329 332 333 333 331 330 329 328 329 332 333 329 331 331 339 343 348 348 347 349 350
302 309 310 311 311 310 308 308 312 310 310 310 309 308 309 311 312 312 313 320 323 323 326 329 333 331 333 330 329 330 326 324 326 328 329 326 330 331 333 336 341 344 349 350 350
302 309 311 312 312 310 308 311 310 309 309 308 307 307 307 308 310 311 314 317 323 326 323 328 329 333 332 331 326 326 325 323 323 327 326 325 326 327 328 331 336 338 340 350 350
306 310 312 312 310 309 309 312 311 309 307 307 307 308 309 309 310 310 315 316 321 323 320 323 324 329 332 333 328 324 324 323 323 325 327 327 326 328 327 328 330 332 338 342 349
307 311 313 312 310 310 310 311 309 308 307 309 309 308 308 308 313 313 314 314 319 319 318 321 323 323 327 333 333 324 325 323 322 322 325 329 329 328 328 329 330 331 335 339 349
307 311 311 312 311 311 310 310 308 308 308 308 308 308 309 309 310 312 312 314 316 316 318 319 323 324 324 326 330 326 325 324 325 323 323 323 327 332 331 330 331 332 332 337 344
308 310 311 310 311 311 311 310 310 308 308 308 306 308 308 309 314 314 315 314 314 315 316 319 324 327 324 324 324 328 326 325 323 324 325 325 326 331 329 331 331 333 331 333 339
309 310 311 310 309 310 310 311 311 309 309 309 308 308 310 308 309 312 312 312 312 313 318 319 321 324 329 325 326 329 328 325 324 326 325 327 328 330 330 332 333 332 332 334 339
308 310 309 309 309 309 309 310 312 311 310 308 309 308 309 310 308 311 311 310 310 313 314 315 319 325 329 329 330 331 328 327 325 325 327 325 333 334 332 335 339 335 335 339 339
308 309 306 307 308 309 309 310 311 310 309 309 309 307 308 309 308 309 309 310 311 312 312 312 318 322 333 331 330 333 330 328 327 326 326 327 327 332 335 336 336 335 338 343 342
307 306 305 307 307 308 310 310 312 310 310 309 310 308 308 307 308 307 307 307 309 313 312 312 315 320 333 333 333 336 333 328 328 328 327 328 328 334 337 338 336 336 334 334 339
Wind_Speed
27 27 28 28 28 28 27 26 27 26 23 23 23 21 18 19 21 13 11 22 20 19 9 10 18 17 24 8 21 20 1 3 5 3 11 16 21 13 13 22 9 5 23 26 40
29 30 31 31 30 30 30 31 31 26 25 25 22 20 18 19 19 18 40 35 27 14 22 15 14 15 12 18 8 13 5 8 6 2 5 13 7 4 17 18 18 24 23 36 35
32 34 35 35 34 34 34 35 31 25 27 26 22 18 15 11 6 10 8 25 35 28 23 25 19 15 15 15 18 17 11 9 7 12 4 9 1 6 14 20 29 29 27 27 32
35 37 37 39 38 38 38 36 29 25 28 24 18 13 8 1 4 9 6 6 27 31 19 21 18 15 14 18 20 17 19 14 9 9 6 5 3 6 8 15 27 30 27 25 23
35 37 39 39 39 40 40 33 28 28 27 19 14 8 1 5 12 12 17 10 19 34 26 17 17 16 18 18 19 18 19 17 11 7 13 6 8 6 22 29 28 28 25 23 20
38 39 41 42 42 40 36 34 32 31 25 17 10 4 4 8 15 18 8 10 20 34 25 21 9 15 10 19 17 17 20 17 15 10 13 2 7 7 24 30 28 28 25 22 20
39 40 41 43 42 41 35 35 37 40 28 13 7 9 9 19 10 9 26 19 22 34 19 28 26 13 16 11 19 20 19 18 17 22 13 23 15 10 7 28 27 25 24 24 22
38 40 41 43 40 35 35 38 40 27 12 9 8 10 9 19 18 27 13 21 24 30 28 24 28 16 16 9 17 18 18 15 14 24 18 23 12 17 15 13 24 26 23 24 24
39 42 45 48 42 35 34 38 31 24 2 2 8 8 11 17 10 27 22 19 28 24 31 25 21 18 16 15 13 12 14 13 17 17 15 26 18 22 18 18 9 11 23 23 25
43 45 46 48 43 34 34 36 24 4 2 3 7 4 9 5 10 20 24 22 14 15 15 15 10 15 17 12 17 12 8 12 12 13 19 12 14 27 17 18 18 12 13 19 26
42 45 45 46 42 28 37 17 10 3 13 12 18 20 38 27 33 17 26 19 12 14 16 18 11 23 24 20 13 11 17 14 15 10 12 14 20 23 19 22 24 20 2 14 19
44 46 46 46 40 23 22 9 14 17 20 20 27 28 37 25 16 12 26 16 17 21 18 14 25 19 15 16 19 18 21 20 12 17 14 12 16 24 25 28 18 16 12 16 21
45 47 47 44 29 16 29 22 28 28 8 18 11 14 15 13 18 30 9 21 16 22 24 24 13 20 20 21 22 22 19 19 13 16 16 9 21 20 14 20 20 21 15 26 17
45 47 46 43 8 30 14 30 30 27 5 9 1 5 6 8 9 24 28 19 17 23 24 26 20 25 24 23 22 19 19 21 21 14 10 12 8 14 16 18 20 24 27 31 22
44 45 45 26 18 7 23 33 31 19 4 14 16 13 30 2 9 12 32 21 25 22 20 26 26 24 24 25 21 14 17 20 21 15 8 13 10 11 22 15 20 23 23 26 25
49 47 46 18 15 19 23 32 23 3 5 11 21 24 30 28 23 20 11 18 15 23 24 25 14 21 25 20 20 17 12 15 17 13 13 17 7 13 16 24 25 25 21 24 27
53 54 27 13 6 19 27 14 4 4 12 11 24 22 24 25 25 25 21 20 18 21 26 20 30 24 22 20 22 13 14 9 11 12 14 9 6 8 9 21 32 31 26 30 29
54 37 15 15 23 21 18 9 6 9 11 19 19 21 18 22 22 28 31 16 24 22 6 21 20 31 23 22 17 22 21 6 9 7 8 8 10 8 9 6 17 28 33 33 30
53 29 15 16 17 16 5 5 6 11 14 16 19 16 23 23 18 23 22 17 10 21 26 17 30 14 29 22 20 16 18 13 3 5 3 5 10 11 16 13 9 18 21 31 30
38 15 11 5 11 11 4 11 15 12 14 13 17 14 21 20 13 14 13 17 28 24 28 27 12 19 22 25 20 15 9 12 9 10 10 8 14 16 13 18 9 11 17 25 31
16 7 1 31 14 4 8 13 12 14 14 9 14 17 16 17 13 11 10 26 21 29 31 17 14 29 15 24 28 9 12 14 4 5 7 4 10 15 21 19 16 14 13 24 28
9 5 21 29 6 4 7 11 15 17 11 8 9 13 12 25 7 7 16 14 24 25 27 21 8 18 27 13 25 16 14 16 12 14 5 5 10 6 8 25 19 15 11 17 22
6 7 15 24 5 8 15 17 18 9 8 8 8 13 9 12 3 6 10 11 14 19 13 13 6 6 20 16 21 25 25 17 9 6 12 9 6 3 13 20 19 10 12 10 15
4 5 4 6 10 12 15 14 17 19 9 2 9 8 12 15 2 4 12 9 16 20 34 24 12 15 11 15 7 19 23 21 12 12 10 11 5 9 9 9 9 9 10 10 11
2 3 6 5 9 16 15 15 16 12 9 17 4 11 6 12 12 9 12 15 16 19 16 12 9 14 15 15 11 15 28 23 21 15 16 10 8 6 2 8 5 8 7 11 9
3 1 2 5 11 13 10 11 16 12 16 15 15 10 10 9 8 14 11 5 5 14 16 16 8 18 7 11 11 16 21 25 22 20 13 14 8 8 8 9 11 10 10 9 9
4 2 2 4 5 7 5 9 10 19 13 17 20 8 11 12 4 17 10 11 9 5 12 15 10 12 5 4 3 6 16 21 19 17 18 12 8 7 6 12 10 9 11 11 10
Wind_Direction
359 356 354 351 348 345 341 335 334 329 325 321 318 315 312 312 305 292 236 230 234 228 206 185 201 212 186 228 240 220 120 277 257 344 356 329 106 127 134 135 139 195 139 144 151
356 355 354 350 345 342 340 337 334 327 326 322 316 309 304 315 306 255 255 250 229 213 222 212 199 203 225 206 233 227 159 224 242 234 231 313 70 66 121 115 102 112 124 144 158
358 356 355 351 346 343 340 338 332 328 327 322 312 305 303 328 278 246 278 243 227 212 228 220 243 197 221 228 232 243 216 208 243 265 253 300 107 29 137 129 142 140 148 149 161
358 355 353 349 346 343 341 339 335 332 332 326 318 304 300 115 253 158 55 13 210 206 204 217 234 216 218 225 229 235 232 184 207 220 123 212 102 336 253 152 145 144 151 155 164
356 353 351 349 345 342 340 338 333 329 332 325 320 301 155 215 243 224 293 291 198 198 206 212 225 225 217 225 233 233 242 210 212 141 147 159 184 219 135 137 142 145 154 161 169
356 354 351 348 344 341 337 333 329 326 326 315 304 237 219 247 249 255 239 173 181 187 205 211 224 229 233 235 238 246 245 232 184 129 134 207 238 75 143 140 146 153 158 164 174
354 352 349 346 342 340 335 331 327 322 316 295 276 213 248 238 249 240 210 197 182 188 203 214 227 236 228 249 241 255 264 268 184 140 165 199 256 98 305 140 150 157 164 169 177
353 351 350 348 344 340 332 331 335 323 303 278 243 195 252 258 270 274 232 186 187 196 211 217 231 250 254 253 258 252 254 256 239 166 194 154 179 145 154 158 154 158 173 177 180
354 352 349 347 344 337 329 331 331 333 355 294 153 206 261 304 218 238 232 204 184 203 204 219 224 236 249 237 254 252 244 241 243 210 219 180 134 166 152 139 104 187 179 185 181
354 352 348 345 341 334 326 332 338 20 74 168 252 284 265 261 235 214 221 233 186 204 190 214 218 223 235 220 222 230 233 245 242 234 201 190 161 169 168 143 135 288 237 188 184
353 350 347 342 339 329 330 340 5 296 336 260 254 261 293 282 320 206 201 216 210 208 196 213 211 221 215 226 230 234 246 231 244 233 229 208 139 169 169 158 166 185 265 219 200
351 350 348 340 338 331 346 353 355 308 304 260 252 254 255 270 283 294 194 196 213 206 193 214 227 222 210 220 233 230 238 244 234 242 229 186 162 168 168 178 146 118 333 297 191
349 348 346 338 338 345 337 351 335 329 292 304 245 244 242 225 231 256 259 200 211 209 202 209 220 221 210 219 223 231 233 243 243 232 239 200 155 162 179 127 131 134 179 260 240
348 344 343 340 350 334 322 331 331 324 301 284 253 8 351 233 263 231 248 220 222 219 214 226 224 200 225 217 222 222 234 247 251 257 237 191 208 191 174 169 171 154 182 211 218
343 340 339 339 299 296 302 318 322 310 293 357 13 345 350 42 289 207 224 242 213 217 208 217 206 227 213 223 219 228 221 240 250 260 273 272 199 191 171 190 182 192 203 205 204
341 336 336 330 312 282 317 318 307 238 253 334 10 354 348 338 325 312 249 231 227 229 231 229 223 221 227 214 228 218 225 242 246 251 256 251 211 216 171 188 201 204 201 203 198
338 334 327 294 255 303 313 313 300 241 339 331 351 356 333 323 341 353 335 230 220 213 231 233 223 224 226 217 208 209 211 227 232 228 237 244 250 212 188 186 192 200 203 199 203
338 343 327 277 280 291 314 307 264 331 349 333 339 335 318 335 340 342 336 323 216 224 203 228 227 216 213 224 207 206 212 194 201 224 235 253 256 252 245 229 208 182 184 189 181
339 338 303 288 259 282 308 286 318 353 355 345 335 325 326 322 340 337 331 291 289 225 229 215 242 195 226 215 214 205 222 212 217 230 151 219 268 277 265 270 188 200 175 178 178
332 307 281 308 313 294 274 262 293 1 350 345 325 331 324 322 337 335 319 285 344 351 347 250 280 222 215 231 232 189 160 209 211 202 225 224 224 234 236 244 225 209 189 174 179
325 317 67 342 312 267 259 281 349 344 349 8 339 319 302 306 356 320 277 309 357 339 334 310 239 254 241 210 220 197 191 203 167 186 192 221 236 232 221 221 217 209 185 183 175
317 314 307 329 323 316 350 351 338 335 7 12 330 308 327 311 276 297 289 275 331 329 319 287 289 235 241 258 213 212 213 198 204 225 226 206 250 317 227 208 205 205 182 177 166
303 287 344 353 360 354 338 339 329 17 354 339 302 308 310 303 345 336 338 313 326 322 326 327 324 262 244 252 267 209 204 213 175 148 225 232 271 280 314 191 194 178 189 169 146
291 320 348 318 4 1 337 321 326 324 350 328 308 310 341 313 15 283 268 284 311 308 311 311 251 245 252 232 216 214 199 207 201 203 218 236 220 296 356 76 152 161 153 174 148
316 324 5 313 330 322 310 311 333 322 343 306 273 276 297 312 312 304 330 340 320 312 310 319 267 258 272 270 278 292 200 197 211 210 202 232 193 201 123 64 96 150 144 149 145
288 20 344 282 297 306 311 308 304 317 323 312 324 335 316 281 277 303 286 317 291 311 322 320 291 321 277 264 265 278 220 196 202 213 225 214 219 198 171 99 73 78 85 92 106
344 10 138 253 293 303 289 314 296 310 304 315 311 273 264 304 337 274 269 269 248 223 307 297 319 330 306 279 323 300 245 208 202 198 213 227 200 165 111 122 118 89 92 86 86